START_TIME,STEP,MOV.,M29,t_acc.,H22,t_acc.,H26,t_acc.,H30,t_acc.
1981-08-27 09:00:32.710 ,4,1,0.,24.0,0.,24.0,0.,24.0,0.,24.0
1981-08-27 09:00:56.710 ,3,1,0.,24.0,0.,24.0,0.,24.0,0.,24.0
1981-08-27 09:01:20.710 ,2,1,0.,24.0,0.,24.0,0.,24.0,0.,24.0
1981-08-27 09:01:44.710 ,1,1,0.,24.0,0.,24.0,0.,24.0,0.,24.0
1981-08-27 09:02:08.710 ,0,1,1.,24.0,0.,24.0,0.,24.0,0.,24.0
1981-08-27 09:02:32.710 ,0,1,0.,24.0,0.,24.0,0.,24.0,0.,24.0
1981-08-27 09:02:56.710 ,1,1,0.,24.0,0.,24.0,0.,24.0,0.,24.0
1981-08-27 09:03:20.710 ,2,1,0.,24.0,0.,24.0,0.,24.0,0.,24.0
1981-08-27 09:03:44.710 ,3,1,0.,24.0,0.,24.0,0.,24.0,0.,24.0
1981-08-27 09:04:08.710 ,4,1,0.,24.0,0.,24.0,0.,24.0,0.,24.0
1981-08-27 09:04:32.700 ,5,1,0.,24.0,0.,24.0,0.,24.0,0.,24.0
1981-08-27 09:04:56.700 ,6,1,0.,24.0,0.,24.0,0.,24.0,0.,24.0
1981-08-27 09:05:20.700 ,7,1,0.,24.0,0.,24.0,0.,24.0,0.,24.0
1981-08-27 09:05:44.700 ,7,1,0.,24.0,0.,24.0,0.,24.0,0.,24.0
1981-08-27 09:06:08.700 ,7,0,0.,24.0,0.,24.0,0.,24.0,0.,24.0
1981-08-27 09:06:32.700 ,6,1,0.,24.0,0.,24.0,0.,24.0,0.,24.0
1981-08-27 09:06:56.700 ,6,0,0.,24.0,0.,24.0,0.,24.0,0.,24.0
1981-08-27 09:07:20.700 ,5,1,0.,24.0,0.,24.0,0.,24.0,0.,24.0
1981-08-27 09:07:44.700 ,5,0,1.,24.0,0.,24.0,0.,24.0,0.,24.0
1981-08-27 09:08:08.700 ,4,1,0.,24.0,0.,24.0,0.,24.0,0.,24.0
1981-08-27 09:08:32.710 ,4,0,0.,24.0,0.,24.0,0.,24.0,0.,24.0
1981-08-27 09:08:56.710 ,3,1,0.,24.0,0.,24.0,0.,24.0,0.,24.0
1981-08-27 09:09:20.710 ,3,0,0.,24.0,0.,24.0,0.,24.0,0.,24.0
1981-08-27 09:09:44.710 ,2,1,0.,24.0,0.,24.0,0.,24.0,0.,24.0
1981-08-27 09:10:08.710 ,2,0,0.,24.0,0.,24.0,0.,24.0,0.,24.0
1981-08-27 09:10:32.710 ,1,1,0.,24.0,0.,24.0,0.,24.0,0.,24.0
1981-08-27 09:10:56.710 ,1,0,0.,24.0,0.,24.0,0.,24.0,0.,24.0
1981-08-27 09:11:20.710 ,0,1,0.,24.0,0.,24.0,0.,24.0,0.,24.0
1981-08-27 09:11:44.710 ,0,0,0.,24.0,0.,24.0,0.,24.0,0.,24.0
1981-08-27 09:12:08.710 ,0,1,0.,24.0,0.,24.0,0.,24.0,0.,24.0
1981-08-27 09:12:32.710 ,0,0,0.,24.0,0.,24.0,0.,24.0,0.,24.0
1981-08-27 09:12:56.710 ,1,1,0.,24.0,0.,24.0,0.,24.0,0.,24.0
1981-08-27 09:13:20.710 ,1,0,0.,24.0,0.,24.0,0.,24.0,0.,24.0
1981-08-27 09:13:44.710 ,2,1,0.,24.0,0.,24.0,0.,24.0,0.,24.0
1981-08-27 09:14:08.710 ,2,0,0.,24.0,0.,24.0,0.,24.0,0.,24.0
1981-08-27 09:14:32.710 ,3,1,0.,24.0,0.,24.0,0.,24.0,0.,24.0
1981-08-27 09:14:56.710 ,3,0,0.,24.0,0.,24.0,0.,24.0,0.,24.0
1981-08-27 09:15:20.710 ,4,1,0.,24.0,0.,24.0,0.,24.0,0.,24.0
1981-08-27 09:15:44.710 ,4,0,0.,24.0,0.,24.0,0.,24.0,0.,24.0
1981-08-27 09:16:08.710 ,5,1,1.,24.0,0.,24.0,0.,24.0,0.,24.0
1981-08-27 09:16:32.710 ,5,0,0.,24.0,0.,24.0,0.,24.0,0.,24.0
1981-08-27 09:16:56.710 ,6,1,0.,24.0,0.,24.0,0.,24.0,0.,24.0
1981-08-27 09:17:20.710 ,6,0,0.,24.0,0.,24.0,0.,24.0,0.,24.0
1981-08-27 09:17:44.710 ,7,1,0.,24.0,0.,24.0,0.,24.0,0.,24.0
1981-08-27 09:18:08.710 ,7,0,0.,24.0,0.,24.0,0.,24.0,0.,24.0
1981-08-27 09:18:32.710 ,7,1,0.,24.0,0.,24.0,0.,24.0,0.,24.0
1981-08-27 09:18:56.710 ,6,1,0.,24.0,0.,24.0,0.,24.0,0.,24.0
1981-08-27 09:19:20.710 ,5,1,0.,24.0,0.,24.0,0.,24.0,0.,24.0
1981-08-27 09:19:44.710 ,4,1,0.,24.0,0.,24.0,0.,24.0,0.,24.0
1981-08-27 09:20:08.700 ,3,1,0.,24.0,0.,24.0,0.,24.0,0.,24.0
1981-08-27 09:20:32.700 ,2,1,0.,24.0,0.,24.0,0.,24.0,0.,24.0
1981-08-27 09:20:56.700 ,1,1,0.,24.0,0.,24.0,0.,24.0,0.,24.0
1981-08-27 09:21:20.700 ,0,1,0.,24.0,0.,24.0,0.,24.0,0.,24.0
1981-08-27 09:21:44.700 ,0,1,0.,24.0,0.,24.0,0.,24.0,0.,24.0
1981-08-27 09:22:08.700 ,1,1,0.,24.0,0.,24.0,0.,24.0,0.,24.0
1981-08-27 09:22:32.700 ,2,1,0.,24.0,0.,24.0,0.,24.0,0.,24.0
1981-08-27 09:22:56.700 ,3,1,0.,24.0,0.,24.0,0.,24.0,0.,24.0
1981-08-27 09:23:20.700 ,4,1,0.,24.0,0.,24.0,0.,24.0,0.,24.0
1981-08-27 09:23:44.700 ,5,1,0.,24.0,0.,24.0,0.,24.0,0.,24.0
1981-08-27 09:24:08.700 ,6,1,0.,24.0,0.,24.0,0.,24.0,0.,24.0
1981-08-27 09:24:32.700 ,7,1,0.,24.0,0.,24.0,0.,24.0,0.,24.0
1981-08-27 09:24:56.700 ,7,1,0.,24.0,0.,24.0,0.,24.0,0.,24.0
1981-08-27 09:25:20.700 ,7,0,0.,24.0,0.,24.0,0.,24.0,0.,24.0
1981-08-27 09:25:44.700 ,6,1,0.,24.0,0.,24.0,0.,24.0,0.,24.0
1981-08-27 09:26:08.700 ,6,0,0.,24.0,0.,24.0,0.,24.0,0.,24.0
1981-08-27 09:26:32.700 ,5,1,0.,24.0,0.,24.0,0.,24.0,0.,24.0
1981-08-27 09:26:56.700 ,5,0,0.,24.0,0.,24.0,0.,24.0,0.,24.0
1981-08-27 09:27:20.700 ,4,1,0.,24.0,0.,24.0,0.,24.0,0.,24.0
1981-08-27 09:27:44.700 ,4,0,0.,24.0,0.,24.0,0.,24.0,0.,24.0
1981-08-27 09:28:08.700 ,3,1,0.,24.0,0.,24.0,0.,24.0,0.,24.0
1981-08-27 09:28:32.700 ,3,0,0.,24.0,0.,24.0,0.,24.0,0.,24.0
1981-08-27 09:28:56.700 ,2,1,0.,24.0,0.,24.0,0.,24.0,0.,24.0
1981-08-27 09:29:20.700 ,2,0,0.,24.0,0.,24.0,0.,24.0,0.,24.0
1981-08-27 09:29:44.700 ,1,1,0.,24.0,0.,24.0,0.,24.0,0.,24.0
1981-08-27 09:30:08.700 ,1,0,0.,24.0,0.,24.0,0.,24.0,0.,24.0
1981-08-27 09:30:32.700 ,0,1,0.,24.0,0.,24.0,0.,24.0,0.,24.0
1981-08-27 09:30:56.700 ,0,0,0.,24.0,0.,24.0,0.,24.0,0.,24.0
1981-08-27 09:31:20.700 ,0,1,0.,24.0,0.,24.0,0.,24.0,0.,24.0
1981-08-27 09:31:44.700 ,0,0,0.,24.0,0.,24.0,0.,24.0,0.,24.0
1981-08-27 09:32:08.700 ,1,1,1.,24.0,0.,24.0,0.,24.0,0.,24.0
1981-08-27 09:32:32.700 ,1,0,0.,24.0,0.,24.0,0.,24.0,0.,24.0
1981-08-27 09:32:56.700 ,2,1,0.,24.0,0.,24.0,0.,24.0,0.,24.0
1981-08-27 09:33:20.700 ,2,0,0.,24.0,0.,24.0,0.,24.0,1.,24.0
1981-08-27 09:33:44.700 ,3,1,0.,24.0,0.,24.0,0.,24.0,0.,24.0
1981-08-27 09:34:08.700 ,3,0,0.,24.0,0.,24.0,0.,24.0,0.,24.0
1981-08-27 09:34:32.700 ,4,1,0.,24.0,0.,24.0,0.,24.0,0.,24.0
1981-08-27 09:34:56.700 ,4,0,0.,24.0,0.,24.0,0.,24.0,0.,24.0
1981-08-27 09:35:20.700 ,5,1,0.,24.0,0.,24.0,0.,24.0,0.,24.0
1981-08-27 09:35:44.700 ,5,0,0.,24.0,0.,24.0,0.,24.0,0.,24.0
1981-08-27 09:36:08.700 ,6,1,0.,24.0,0.,24.0,0.,24.0,0.,24.0
1981-08-27 09:36:32.700 ,6,0,0.,24.0,0.,24.0,0.,24.0,0.,24.0
1981-08-27 09:36:56.700 ,7,1,0.,24.0,0.,24.0,0.,24.0,0.,24.0
1981-08-27 09:37:20.700 ,7,0,0.,24.0,0.,24.0,0.,24.0,0.,24.0
1981-08-27 09:37:44.700 ,7,1,0.,24.0,0.,24.0,0.,24.0,0.,24.0
1981-08-27 09:38:08.700 ,6,1,0.,24.0,0.,24.0,0.,24.0,0.,24.0
1981-08-27 09:38:32.700 ,5,1,0.,24.0,0.,24.0,0.,24.0,0.,24.0
1981-08-27 09:38:56.700 ,4,1,0.,24.0,0.,24.0,0.,24.0,0.,24.0
1981-08-27 09:39:20.700 ,3,1,0.,24.0,0.,24.0,0.,24.0,0.,24.0
1981-08-27 09:39:44.700 ,2,1,0.,24.0,0.,24.0,0.,24.0,0.,24.0
1981-08-27 09:40:08.700 ,1,1,0.,24.0,0.,24.0,0.,24.0,0.,24.0
1981-08-27 09:40:32.700 ,0,1,0.,24.0,0.,24.0,0.,24.0,0.,24.0
1981-08-27 09:40:56.700 ,0,1,0.,24.0,0.,24.0,0.,24.0,0.,24.0
1981-08-27 09:41:20.700 ,1,1,0.,24.0,0.,24.0,0.,24.0,0.,24.0
1981-08-27 09:41:44.700 ,2,1,0.,24.0,0.,24.0,0.,24.0,0.,24.0
1981-08-27 09:42:08.700 ,3,1,0.,24.0,0.,24.0,0.,24.0,0.,24.0
1981-08-27 09:42:32.700 ,4,1,0.,24.0,0.,24.0,0.,24.0,0.,24.0
1981-08-27 09:42:56.700 ,5,1,0.,24.0,0.,24.0,0.,24.0,0.,24.0
1981-08-27 09:43:20.700 ,6,1,0.,24.0,0.,24.0,0.,24.0,0.,24.0
1981-08-27 09:43:44.700 ,7,1,0.,24.0,0.,24.0,0.,24.0,0.,24.0
1981-08-27 09:44:08.700 ,7,1,0.,24.0,0.,24.0,0.,24.0,0.,24.0
1981-08-27 09:44:32.700 ,7,0,0.,24.0,0.,24.0,0.,24.0,0.,24.0
1981-08-27 09:44:56.700 ,6,1,0.,24.0,0.,24.0,0.,24.0,0.,24.0
1981-08-27 09:45:20.700 ,6,0,0.,24.0,0.,24.0,0.,24.0,0.,24.0
1981-08-27 09:45:44.700 ,5,1,0.,24.0,0.,24.0,0.,24.0,0.,24.0
1981-08-27 09:46:08.700 ,5,0,0.,24.0,0.,24.0,0.,24.0,0.,24.0
1981-08-27 09:46:32.700 ,4,1,0.,24.0,0.,24.0,0.,24.0,0.,24.0
1981-08-27 09:46:56.700 ,4,0,0.,24.0,0.,24.0,0.,24.0,0.,24.0
1981-08-27 09:47:20.700 ,3,1,0.,24.0,0.,24.0,0.,24.0,0.,24.0
1981-08-27 09:47:44.700 ,3,0,0.,24.0,0.,24.0,0.,24.0,0.,24.0
1981-08-27 09:48:08.700 ,2,1,0.,24.0,0.,24.0,0.,24.0,0.,24.0
1981-08-27 09:48:32.700 ,2,0,0.,24.0,0.,24.0,0.,24.0,0.,24.0
1981-08-27 09:48:56.700 ,1,1,0.,24.0,0.,24.0,0.,24.0,0.,24.0
1981-08-27 09:49:20.700 ,1,0,0.,24.0,0.,24.0,0.,24.0,0.,24.0
1981-08-27 09:49:44.700 ,0,1,0.,24.0,0.,24.0,0.,24.0,0.,24.0
1981-08-27 09:50:08.700 ,0,0,0.,24.0,0.,24.0,0.,24.0,0.,24.0
1981-08-27 09:50:32.700 ,0,1,0.,24.0,0.,24.0,0.,24.0,0.,24.0
1981-08-27 09:50:56.700 ,0,0,0.,24.0,0.,24.0,0.,24.0,0.,24.0
1981-08-27 09:51:20.700 ,1,1,0.,24.0,0.,24.0,0.,24.0,0.,24.0
1981-08-27 09:51:44.700 ,1,0,0.,24.0,0.,24.0,0.,24.0,0.,24.0
1981-08-27 09:52:08.700 ,2,1,0.,24.0,0.,24.0,0.,24.0,0.,24.0
1981-08-27 09:52:32.700 ,2,0,0.,24.0,0.,24.0,0.,24.0,0.,24.0
1981-08-27 09:52:56.700 ,3,1,0.,24.0,0.,24.0,0.,24.0,0.,24.0
1981-08-27 09:53:20.700 ,3,0,0.,24.0,0.,24.0,0.,24.0,0.,24.0
1981-08-27 09:53:44.700 ,4,1,0.,24.0,0.,24.0,0.,24.0,0.,24.0
1981-08-27 09:54:08.700 ,4,0,0.,24.0,0.,24.0,0.,24.0,0.,24.0
1981-08-27 09:54:32.700 ,5,1,0.,24.0,0.,24.0,0.,24.0,0.,24.0
1981-08-27 09:54:56.700 ,5,0,0.,24.0,0.,24.0,0.,24.0,0.,24.0
1981-08-27 09:55:20.700 ,6,1,0.,24.0,0.,24.0,0.,24.0,0.,24.0
1981-08-27 09:55:44.700 ,6,0,0.,24.0,0.,24.0,0.,24.0,0.,24.0
1981-08-27 09:56:08.700 ,7,1,0.,24.0,0.,24.0,0.,24.0,0.,24.0
1981-08-27 09:56:32.700 ,7,0,0.,24.0,0.,24.0,0.,24.0,0.,24.0
1981-08-27 09:56:56.700 ,7,1,0.,24.0,0.,24.0,0.,24.0,0.,24.0
1981-08-27 09:57:20.700 ,6,1,0.,24.0,0.,24.0,0.,24.0,0.,24.0
1981-08-27 09:57:44.700 ,5,1,0.,24.0,0.,24.0,0.,24.0,0.,24.0
1981-08-27 09:58:08.700 ,4,1,0.,24.0,0.,24.0,0.,24.0,0.,24.0
1981-08-27 09:58:32.700 ,3,1,0.,24.0,0.,24.0,0.,24.0,0.,24.0
1981-08-27 09:58:56.700 ,2,1,0.,24.0,0.,24.0,0.,24.0,0.,24.0
1981-08-27 09:59:20.700 ,1,1,0.,24.0,0.,24.0,0.,24.0,0.,24.0
1981-08-27 09:59:44.700 ,0,1,0.,24.0,0.,24.0,0.,24.0,0.,24.0
1981-08-27 10:00:08.700 ,0,1,0.,24.0,0.,24.0,0.,24.0,0.,24.0
1981-08-27 10:00:32.700 ,1,1,0.,24.0,0.,24.0,0.,24.0,0.,24.0
1981-08-27 10:00:56.700 ,2,1,0.,24.0,0.,24.0,0.,24.0,0.,24.0
1981-08-27 10:01:20.700 ,3,1,0.,24.0,0.,24.0,0.,24.0,0.,24.0
1981-08-27 10:01:44.700 ,4,1,0.,24.0,0.,24.0,0.,24.0,0.,24.0
1981-08-27 10:02:08.700 ,5,1,0.,24.0,0.,24.0,0.,24.0,0.,24.0
1981-08-27 10:02:32.700 ,6,1,0.,24.0,0.,24.0,0.,24.0,0.,24.0
1981-08-27 10:02:56.700 ,7,1,0.,24.0,0.,24.0,0.,24.0,0.,24.0
1981-08-27 10:03:20.700 ,7,1,0.,24.0,0.,24.0,0.,24.0,0.,24.0
1981-08-27 10:03:44.700 ,7,0,0.,24.0,0.,24.0,0.,24.0,0.,24.0
1981-08-27 10:04:08.700 ,6,1,0.,24.0,0.,24.0,0.,24.0,0.,24.0
1981-08-27 10:04:32.700 ,6,0,0.,24.0,0.,24.0,0.,24.0,0.,24.0
1981-08-27 10:04:56.700 ,5,1,0.,24.0,0.,24.0,0.,24.0,0.,24.0
1981-08-27 10:05:20.700 ,5,0,0.,24.0,0.,24.0,0.,24.0,0.,24.0
1981-08-27 10:05:44.700 ,4,1,0.,24.0,0.,24.0,0.,24.0,0.,24.0
1981-08-27 10:06:08.700 ,4,0,0.,24.0,0.,24.0,0.,24.0,0.,24.0
1981-08-27 10:06:32.700 ,3,1,0.,24.0,0.,24.0,0.,24.0,0.,24.0
1981-08-27 10:06:56.700 ,3,0,0.,24.0,0.,24.0,0.,24.0,0.,24.0
1981-08-27 10:07:20.700 ,2,1,0.,24.0,0.,24.0,0.,24.0,0.,24.0
1981-08-27 10:07:44.700 ,2,0,0.,24.0,0.,24.0,0.,24.0,0.,24.0
1981-08-27 10:08:08.700 ,1,1,0.,24.0,0.,24.0,0.,24.0,0.,24.0
1981-08-27 10:08:32.700 ,1,0,0.,24.0,0.,24.0,0.,24.0,0.,24.0
1981-08-27 10:08:56.700 ,0,1,0.,24.0,0.,24.0,0.,24.0,0.,24.0
1981-08-27 10:09:20.700 ,0,0,0.,24.0,0.,24.0,0.,24.0,0.,24.0
1981-08-27 10:09:44.700 ,0,1,0.,24.0,0.,24.0,0.,24.0,0.,24.0
1981-08-27 10:10:08.700 ,0,0,0.,24.0,0.,24.0,0.,24.0,0.,24.0
1981-08-27 10:10:32.700 ,1,1,0.,24.0,0.,24.0,0.,24.0,0.,24.0
1981-08-27 10:10:56.700 ,1,0,0.,24.0,0.,24.0,0.,24.0,0.,24.0
1981-08-27 10:11:20.700 ,2,1,0.,24.0,0.,24.0,0.,24.0,0.,24.0
1981-08-27 10:11:44.700 ,2,0,0.,24.0,0.,24.0,0.,24.0,0.,24.0
1981-08-27 10:12:08.700 ,3,1,0.,24.0,0.,24.0,0.,24.0,0.,24.0
1981-08-27 10:12:32.700 ,3,0,0.,24.0,0.,24.0,0.,24.0,0.,24.0
1981-08-27 10:12:56.700 ,4,1,0.,24.0,0.,24.0,0.,24.0,0.,24.0
1981-08-27 10:13:20.700 ,4,0,0.,24.0,0.,24.0,0.,24.0,0.,24.0
1981-08-27 10:13:44.700 ,5,1,0.,24.0,0.,24.0,0.,24.0,0.,24.0
1981-08-27 10:14:08.700 ,5,0,0.,24.0,0.,24.0,0.,24.0,0.,24.0
1981-08-27 10:14:32.700 ,6,1,0.,24.0,0.,24.0,0.,24.0,0.,24.0
1981-08-27 10:14:56.700 ,6,0,0.,24.0,0.,24.0,0.,24.0,0.,24.0
1981-08-27 10:15:20.700 ,7,1,0.,24.0,0.,24.0,0.,24.0,0.,24.0
1981-08-27 10:15:44.700 ,7,0,0.,24.0,0.,24.0,0.,24.0,0.,24.0
1981-08-27 10:16:08.700 ,7,1,0.,24.0,0.,24.0,0.,24.0,0.,24.0
1981-08-27 10:16:32.700 ,6,1,0.,24.0,0.,24.0,0.,24.0,0.,24.0
1981-08-27 10:16:56.700 ,5,1,0.,24.0,0.,24.0,0.,24.0,0.,24.0
1981-08-27 10:17:20.700 ,4,1,0.,24.0,0.,24.0,0.,24.0,0.,24.0
1981-08-27 10:17:44.700 ,3,1,0.,24.0,0.,24.0,0.,24.0,1.,24.0
1981-08-27 10:18:08.700 ,2,1,0.,24.0,0.,24.0,0.,24.0,0.,24.0
1981-08-27 10:18:32.700 ,1,1,0.,24.0,0.,24.0,0.,24.0,0.,24.0
1981-08-27 10:18:56.700 ,0,1,0.,24.0,0.,24.0,0.,24.0,0.,24.0
1981-08-27 10:19:20.700 ,0,1,0.,24.0,0.,24.0,0.,24.0,0.,24.0
1981-08-27 10:19:44.700 ,1,1,0.,24.0,0.,24.0,0.,24.0,0.,24.0
1981-08-27 10:20:08.700 ,2,1,0.,24.0,0.,24.0,0.,24.0,0.,24.0
1981-08-27 10:20:32.700 ,3,1,0.,24.0,0.,24.0,0.,24.0,0.,24.0
1981-08-27 10:20:56.700 ,4,1,0.,24.0,0.,24.0,0.,24.0,0.,24.0
1981-08-27 10:21:20.700 ,5,1,0.,24.0,0.,24.0,0.,24.0,0.,24.0
1981-08-27 10:21:44.700 ,6,1,0.,24.0,0.,24.0,0.,24.0,0.,24.0
1981-08-27 10:22:08.700 ,7,1,0.,24.0,0.,24.0,0.,24.0,0.,24.0
1981-08-27 10:22:32.700 ,7,1,0.,24.0,0.,24.0,0.,24.0,0.,24.0
1981-08-27 10:22:56.700 ,7,0,0.,24.0,0.,24.0,0.,24.0,0.,24.0
1981-08-27 10:23:20.700 ,6,1,0.,24.0,0.,24.0,0.,24.0,0.,24.0
1981-08-27 10:23:44.700 ,6,0,0.,24.0,0.,24.0,0.,24.0,0.,24.0
1981-08-27 10:24:08.700 ,5,1,0.,24.0,0.,24.0,0.,24.0,0.,24.0
1981-08-27 10:24:32.700 ,5,0,0.,24.0,0.,24.0,0.,24.0,0.,24.0
1981-08-27 10:24:56.700 ,4,1,0.,24.0,0.,24.0,0.,24.0,0.,24.0
1981-08-27 10:25:20.700 ,4,0,0.,24.0,0.,24.0,0.,24.0,0.,24.0
1981-08-27 10:25:44.700 ,3,1,0.,24.0,0.,24.0,0.,24.0,0.,24.0
1981-08-27 10:26:08.700 ,3,0,0.,24.0,0.,24.0,0.,24.0,0.,24.0
1981-08-27 10:26:32.700 ,2,1,0.,24.0,0.,24.0,0.,24.0,0.,24.0
1981-08-27 10:26:56.700 ,2,0,0.,24.0,0.,24.0,0.,24.0,0.,24.0
1981-08-27 10:27:20.700 ,1,1,0.,24.0,0.,24.0,0.,24.0,0.,24.0
1981-08-27 10:27:44.700 ,1,0,0.,24.0,0.,24.0,0.,24.0,0.,24.0
1981-08-27 10:28:08.700 ,0,1,0.,24.0,0.,24.0,0.,24.0,0.,24.0
1981-08-27 10:28:32.700 ,0,0,0.,24.0,0.,24.0,0.,24.0,0.,24.0
1981-08-27 10:28:56.700 ,0,1,0.,24.0,0.,24.0,0.,24.0,0.,24.0
1981-08-27 10:29:20.700 ,0,0,0.,24.0,0.,24.0,0.,24.0,0.,24.0
1981-08-27 10:29:44.700 ,1,1,0.,24.0,0.,24.0,0.,24.0,0.,24.0
1981-08-27 10:30:08.700 ,1,0,0.,24.0,0.,24.0,0.,24.0,0.,24.0
1981-08-27 10:30:32.700 ,2,1,0.,24.0,0.,24.0,0.,24.0,0.,24.0
1981-08-27 10:30:56.700 ,2,0,0.,24.0,0.,24.0,0.,24.0,0.,24.0
1981-08-27 10:31:20.700 ,3,1,0.,24.0,0.,24.0,0.,24.0,0.,24.0
1981-08-27 10:31:44.700 ,3,0,0.,24.0,0.,24.0,0.,24.0,0.,24.0
1981-08-27 10:32:08.700 ,4,1,0.,24.0,0.,24.0,0.,24.0,0.,24.0
1981-08-27 10:32:32.700 ,4,0,0.,24.0,0.,24.0,0.,24.0,0.,24.0
1981-08-27 10:32:56.700 ,5,1,0.,24.0,0.,24.0,0.,24.0,0.,24.0
1981-08-27 10:33:20.700 ,0,0,0.,24.0,0.,24.0,0.,24.0,0.,24.0
1981-08-27 10:33:50.700 ,0,0,0.,24.0,0.,24.0,0.,24.0,0.,24.0
1981-08-27 10:34:08.700 ,0,0,0.,24.0,0.,24.0,0.,24.0,0.,24.0
1981-08-27 10:34:32.700 ,7,1,0.,24.0,0.,24.0,0.,24.0,0.,24.0
1981-08-27 10:34:56.700 ,7,0,0.,24.0,0.,24.0,0.,24.0,0.,24.0
1981-08-27 10:35:20.700 ,7,1,0.,24.0,0.,24.0,0.,24.0,0.,24.0
1981-08-27 10:35:44.700 ,6,1,0.,24.0,0.,24.0,0.,24.0,0.,24.0
1981-08-27 10:48:08.700 ,0,0,0.,24.0,0.,24.0,0.,24.0,0.,24.0
1981-08-27 10:48:32.700 ,0,0,0.,24.0,0.,24.0,0.,24.0,0.,24.0
1981-08-27 10:48:56.700 ,1,1,0.,24.0,0.,24.0,0.,24.0,0.,24.0
1981-08-27 10:49:20.700 ,1,0,0.,24.0,0.,24.0,0.,24.0,0.,24.0
1981-08-27 10:49:44.700 ,2,1,0.,24.0,0.,24.0,0.,24.0,0.,24.0
1981-08-27 10:50:08.700 ,2,0,0.,24.0,0.,24.0,0.,24.0,0.,24.0
1981-08-27 10:50:32.700 ,3,1,0.,24.0,0.,24.0,0.,24.0,0.,24.0
1981-08-27 10:50:56.700 ,3,0,0.,24.0,0.,24.0,0.,24.0,0.,24.0
1981-08-27 10:51:20.700 ,4,1,0.,24.0,0.,24.0,0.,24.0,0.,24.0
1981-08-27 10:51:44.700 ,4,0,0.,24.0,0.,24.0,0.,24.0,0.,24.0
1981-08-27 10:52:08.700 ,5,1,0.,24.0,0.,24.0,0.,24.0,0.,24.0
1981-08-27 10:52:32.700 ,5,0,0.,24.0,0.,24.0,0.,24.0,0.,24.0
1981-08-27 10:52:56.700 ,6,1,0.,24.0,0.,24.0,0.,24.0,0.,24.0
1981-08-27 10:53:20.700 ,6,0,0.,24.0,0.,24.0,0.,24.0,0.,24.0
1981-08-27 10:53:44.700 ,7,1,0.,24.0,0.,24.0,0.,24.0,0.,24.0
1981-08-27 10:54:08.700 ,7,0,0.,24.0,0.,24.0,0.,24.0,0.,24.0
1981-08-27 10:54:32.700 ,7,1,0.,24.0,0.,24.0,0.,24.0,0.,24.0
1981-08-27 10:54:56.700 ,6,1,0.,24.0,0.,24.0,0.,24.0,0.,24.0
1981-08-27 10:55:20.700 ,5,1,0.,24.0,0.,24.0,0.,24.0,0.,24.0
1981-08-27 10:55:44.700 ,4,1,0.,24.0,0.,24.0,0.,24.0,0.,24.0
1981-08-27 10:56:08.700 ,3,1,0.,24.0,0.,24.0,0.,24.0,0.,24.0
1981-08-27 10:56:32.700 ,2,1,0.,24.0,0.,24.0,0.,24.0,0.,24.0
1981-08-27 10:56:56.700 ,1,1,0.,24.0,0.,24.0,0.,24.0,0.,24.0
1981-08-27 10:57:20.700 ,0,1,0.,24.0,0.,24.0,0.,24.0,0.,24.0
1981-08-27 10:57:44.700 ,0,1,0.,24.0,0.,24.0,0.,24.0,0.,24.0
1981-08-27 10:58:08.700 ,1,1,0.,24.0,0.,24.0,0.,24.0,0.,24.0
1981-08-27 10:58:32.700 ,2,1,0.,24.0,0.,24.0,0.,24.0,0.,24.0
1981-08-27 10:58:56.700 ,3,1,0.,24.0,0.,24.0,0.,24.0,0.,24.0
1981-08-27 10:59:20.700 ,4,1,0.,24.0,0.,24.0,0.,24.0,0.,24.0
1981-08-27 10:59:44.700 ,5,1,0.,24.0,0.,24.0,0.,24.0,0.,24.0
1981-08-27 11:00:56.700 ,0,0,0.,24.0,0.,24.0,0.,24.0,0.,24.0
1981-08-27 11:01:20.700 ,0,0,0.,24.0,0.,24.0,0.,24.0,0.,24.0
1981-08-27 11:01:44.700 ,6,1,0.,24.0,0.,24.0,0.,24.0,0.,24.0
1981-08-27 11:02:08.700 ,6,0,0.,24.0,0.,24.0,0.,24.0,0.,24.0
1981-08-27 11:02:32.700 ,5,1,0.,24.0,0.,24.0,0.,24.0,0.,24.0
1981-08-27 11:02:56.700 ,5,0,0.,24.0,0.,24.0,0.,24.0,0.,24.0
1981-08-27 11:03:20.700 ,4,1,0.,24.0,0.,24.0,0.,24.0,0.,24.0
1981-08-27 11:03:44.700 ,4,0,0.,24.0,0.,24.0,0.,24.0,0.,24.0
1981-08-27 11:04:08.700 ,3,1,0.,24.0,0.,24.0,0.,24.0,0.,24.0
1981-08-27 11:04:32.700 ,3,0,0.,24.0,0.,24.0,0.,24.0,0.,24.0
1981-08-27 11:04:56.700 ,2,1,0.,24.0,0.,24.0,0.,24.0,0.,24.0
1981-08-27 11:05:20.700 ,2,0,0.,24.0,0.,24.0,0.,24.0,0.,24.0
1981-08-27 11:05:44.700 ,1,1,0.,24.0,0.,24.0,0.,24.0,0.,24.0
1981-08-27 11:06:08.700 ,1,0,0.,24.0,0.,24.0,0.,24.0,0.,24.0
1981-08-27 11:07:20.700 ,0,0,0.,24.0,0.,24.0,0.,24.0,0.,24.0
1981-08-27 11:07:44.700 ,0,0,0.,24.0,0.,24.0,0.,24.0,0.,24.0
1981-08-27 11:08:08.700 ,1,1,0.,24.0,0.,24.0,0.,24.0,0.,24.0
1981-08-27 11:08:32.700 ,1,0,0.,24.0,0.,24.0,0.,24.0,0.,24.0
1981-08-27 11:08:56.700 ,2,1,0.,24.0,0.,24.0,0.,24.0,0.,24.0
1981-08-27 11:09:20.700 ,2,0,0.,24.0,0.,24.0,0.,24.0,0.,24.0
1981-08-27 11:09:44.700 ,3,1,0.,24.0,0.,24.0,0.,24.0,0.,24.0
1981-08-27 11:10:08.700 ,3,0,0.,24.0,0.,24.0,0.,24.0,0.,24.0
1981-08-27 11:10:32.700 ,4,1,0.,24.0,0.,24.0,0.,24.0,0.,24.0
1981-08-27 11:10:56.700 ,4,0,0.,24.0,0.,24.0,0.,24.0,0.,24.0
1981-08-27 11:11:20.700 ,5,1,0.,24.0,0.,24.0,0.,24.0,0.,24.0
1981-08-27 11:11:44.700 ,5,0,0.,24.0,0.,24.0,0.,24.0,0.,24.0
1981-08-27 11:12:08.700 ,6,1,0.,24.0,0.,24.0,0.,24.0,0.,24.0
1981-08-27 11:12:32.700 ,6,0,0.,24.0,0.,24.0,0.,24.0,0.,24.0
1981-08-27 11:12:56.700 ,7,1,0.,24.0,0.,24.0,0.,24.0,0.,24.0
1981-08-27 11:13:20.700 ,7,0,0.,24.0,0.,24.0,0.,24.0,0.,24.0
1981-08-27 11:13:44.700 ,7,1,0.,24.0,0.,24.0,0.,24.0,0.,24.0
1981-08-27 11:14:08.700 ,6,1,0.,24.0,0.,24.0,0.,24.0,0.,24.0
1981-08-27 11:14:32.700 ,5,1,0.,24.0,0.,24.0,0.,24.0,0.,24.0
1981-08-27 11:14:56.700 ,4,1,0.,24.0,0.,24.0,0.,24.0,0.,24.0
1981-08-27 11:15:20.700 ,3,1,0.,24.0,0.,24.0,0.,24.0,0.,24.0
1981-08-27 11:15:44.700 ,2,1,0.,24.0,0.,24.0,0.,24.0,0.,24.0
1981-08-27 11:16:08.700 ,1,1,0.,24.0,0.,24.0,0.,24.0,0.,24.0
1981-08-27 11:16:32.700 ,0,1,0.,24.0,0.,24.0,0.,24.0,0.,24.0
1981-08-27 11:16:56.700 ,0,1,0.,24.0,0.,24.0,0.,24.0,0.,24.0
1981-08-27 11:17:20.700 ,1,1,0.,24.0,0.,24.0,0.,24.0,0.,24.0
1981-08-27 11:17:44.700 ,2,1,0.,24.0,0.,24.0,0.,24.0,0.,24.0
1981-08-27 11:18:08.700 ,3,1,0.,24.0,0.,24.0,0.,24.0,0.,24.0
1981-08-27 11:18:32.700 ,4,1,0.,24.0,0.,24.0,0.,24.0,0.,24.0
1981-08-27 11:18:56.700 ,5,1,0.,24.0,0.,24.0,0.,24.0,0.,24.0
1981-08-27 11:19:20.700 ,6,1,0.,24.0,0.,24.0,0.,24.0,0.,24.0
1981-08-27 11:19:44.700 ,7,1,0.,24.0,0.,24.0,0.,24.0,0.,24.0
1981-08-27 11:20:08.700 ,7,1,0.,24.0,0.,24.0,0.,24.0,0.,24.0
1981-08-27 11:20:32.700 ,7,0,0.,24.0,0.,24.0,0.,24.0,0.,24.0
1981-08-27 11:20:56.700 ,6,1,1.,24.0,0.,24.0,0.,24.0,0.,24.0
1981-08-27 11:21:20.700 ,6,0,1.,24.0,0.,24.0,0.,24.0,0.,24.0
1981-08-27 11:21:44.700 ,5,1,0.,24.0,0.,24.0,0.,24.0,0.,24.0
1981-08-27 11:22:08.700 ,5,0,0.,24.0,0.,24.0,0.,24.0,0.,24.0
1981-08-27 11:22:32.700 ,4,1,0.,24.0,0.,24.0,0.,24.0,0.,24.0
1981-08-27 11:22:56.700 ,4,0,0.,24.0,0.,24.0,0.,24.0,0.,24.0
1981-08-27 11:23:20.700 ,3,1,0.,24.0,0.,24.0,0.,24.0,0.,24.0
1981-08-27 11:23:44.700 ,3,0,0.,24.0,0.,24.0,0.,24.0,0.,24.0
1981-08-27 11:24:08.700 ,2,1,0.,24.0,0.,24.0,0.,24.0,0.,24.0
1981-08-27 11:24:32.700 ,2,0,0.,24.0,0.,24.0,0.,24.0,0.,24.0
1981-08-27 11:24:56.700 ,1,1,0.,24.0,0.,24.0,0.,24.0,0.,24.0
1981-08-27 11:25:20.700 ,1,0,0.,24.0,0.,24.0,0.,24.0,0.,24.0
1981-08-27 11:25:44.700 ,0,1,0.,24.0,0.,24.0,0.,24.0,0.,24.0
1981-08-27 11:26:08.700 ,0,0,0.,24.0,0.,24.0,0.,24.0,0.,24.0
1981-08-27 11:26:32.700 ,0,1,0.,24.0,0.,24.0,0.,24.0,0.,24.0
1981-08-27 11:26:56.700 ,0,0,0.,24.0,0.,24.0,0.,24.0,0.,24.0
1981-08-27 11:27:20.700 ,1,1,0.,24.0,0.,24.0,0.,24.0,0.,24.0
1981-08-27 11:27:44.700 ,1,0,0.,24.0,0.,24.0,0.,24.0,0.,24.0
1981-08-27 11:28:08.700 ,2,1,0.,24.0,0.,24.0,0.,24.0,0.,24.0
1981-08-27 11:28:32.700 ,2,0,0.,24.0,0.,24.0,0.,24.0,0.,24.0
1981-08-27 11:28:56.700 ,3,1,0.,24.0,0.,24.0,0.,24.0,0.,24.0
1981-08-27 11:29:20.700 ,3,0,0.,24.0,0.,24.0,0.,24.0,0.,24.0
1981-08-27 11:29:44.700 ,4,1,0.,24.0,0.,24.0,0.,24.0,0.,24.0
1981-08-27 11:30:08.700 ,4,0,0.,24.0,0.,24.0,0.,24.0,0.,24.0
1981-08-27 11:30:32.700 ,5,1,0.,24.0,0.,24.0,0.,24.0,0.,24.0
1981-08-27 11:30:56.700 ,5,0,0.,24.0,0.,24.0,0.,24.0,0.,24.0
1981-08-27 11:31:20.700 ,6,1,0.,24.0,0.,24.0,0.,24.0,0.,24.0
1981-08-27 11:31:44.700 ,6,0,0.,24.0,0.,24.0,0.,24.0,0.,24.0
1981-08-27 11:32:08.700 ,7,1,0.,24.0,0.,24.0,0.,24.0,0.,24.0
1981-08-27 11:32:32.700 ,7,0,0.,24.0,0.,24.0,0.,24.0,0.,24.0
1981-08-27 11:32:56.700 ,7,1,0.,24.0,0.,24.0,0.,24.0,0.,24.0
1981-08-27 11:33:20.700 ,6,1,0.,24.0,0.,24.0,0.,24.0,0.,24.0
1981-08-27 11:33:44.700 ,5,1,0.,24.0,0.,24.0,0.,24.0,0.,24.0
1981-08-27 11:34:08.700 ,4,1,0.,24.0,0.,24.0,0.,24.0,0.,24.0
1981-08-27 11:34:32.700 ,3,1,0.,24.0,0.,24.0,0.,24.0,0.,24.0
1981-08-27 11:34:56.700 ,2,1,0.,24.0,0.,24.0,0.,24.0,0.,24.0
1981-08-27 11:35:20.700 ,1,1,0.,24.0,0.,24.0,0.,24.0,0.,24.0
1981-08-27 11:35:44.700 ,0,1,0.,24.0,0.,24.0,0.,24.0,0.,24.0
1981-08-27 11:36:08.700 ,0,1,0.,24.0,0.,24.0,0.,24.0,0.,24.0
1981-08-27 11:36:32.700 ,1,1,0.,24.0,0.,24.0,0.,24.0,0.,24.0
1981-08-27 11:36:56.700 ,2,1,0.,24.0,0.,24.0,0.,24.0,0.,24.0
1981-08-27 11:37:20.700 ,3,1,0.,24.0,0.,24.0,0.,24.0,0.,24.0
1981-08-27 11:37:44.700 ,4,1,0.,24.0,0.,24.0,0.,24.0,0.,24.0
1981-08-27 11:38:08.700 ,5,1,0.,24.0,0.,24.0,0.,24.0,0.,24.0
1981-08-27 11:38:32.700 ,6,1,0.,24.0,0.,24.0,0.,24.0,0.,24.0
1981-08-27 11:38:56.700 ,7,1,0.,24.0,0.,24.0,0.,24.0,0.,24.0
1981-08-27 11:39:20.700 ,7,1,0.,24.0,0.,24.0,0.,24.0,0.,24.0
1981-08-27 11:39:44.700 ,7,0,0.,24.0,0.,24.0,0.,24.0,0.,24.0
1981-08-27 11:40:08.700 ,6,1,0.,24.0,0.,24.0,0.,24.0,0.,24.0
1981-08-27 11:40:32.700 ,6,0,0.,24.0,0.,24.0,0.,24.0,0.,24.0
1981-08-27 11:40:56.700 ,5,1,0.,24.0,0.,24.0,0.,24.0,0.,24.0
1981-08-27 11:41:20.700 ,5,0,1.,24.0,0.,24.0,0.,24.0,0.,24.0
1981-08-27 11:41:44.700 ,4,1,0.,24.0,0.,24.0,0.,24.0,0.,24.0
1981-08-27 11:42:08.700 ,4,0,0.,24.0,0.,24.0,0.,24.0,0.,24.0
1981-08-27 11:42:32.700 ,3,1,0.,24.0,0.,24.0,0.,24.0,0.,24.0
1981-08-27 11:42:56.700 ,3,0,0.,24.0,0.,24.0,0.,24.0,0.,24.0
1981-08-27 11:43:20.700 ,2,1,0.,24.0,0.,24.0,0.,24.0,0.,24.0
1981-08-27 11:43:44.700 ,2,0,0.,24.0,0.,24.0,0.,24.0,0.,24.0
1981-08-27 11:44:08.700 ,1,1,0.,24.0,0.,24.0,0.,24.0,0.,24.0
1981-08-27 11:44:32.700 ,1,0,0.,24.0,0.,24.0,0.,24.0,0.,24.0
1981-08-27 11:44:56.700 ,0,1,0.,24.0,0.,24.0,0.,24.0,0.,24.0
1981-08-27 11:45:20.700 ,0,0,0.,24.0,0.,24.0,0.,24.0,0.,24.0
1981-08-27 11:45:44.700 ,0,1,1.,24.0,0.,24.0,0.,24.0,0.,24.0
1981-08-27 11:46:08.700 ,0,0,0.,24.0,0.,24.0,0.,24.0,0.,24.0
1981-08-27 11:46:32.700 ,1,1,0.,24.0,0.,24.0,0.,24.0,0.,24.0
1981-08-27 11:46:56.700 ,1,0,0.,24.0,0.,24.0,0.,24.0,0.,24.0
1981-08-27 11:47:20.700 ,2,1,0.,24.0,0.,24.0,0.,24.0,0.,24.0
1981-08-27 11:47:44.700 ,2,0,0.,24.0,0.,24.0,0.,24.0,0.,24.0
1981-08-27 11:48:08.700 ,3,1,0.,24.0,0.,24.0,0.,24.0,0.,24.0